This demonstration page uses our WeatherBlox Daily Observations layout. Learn more.

Left ArrowRight Arrow

39.92423, -83.80882

Hourly Observations for August 31, 2016

Temp ( °F °C ) Dew Point ( °F °C ) Humidity (%) Winds ( mph kmh ) Pressure ( in mb ) Visibility ( mi km ) Precip ( " mm )
12:56 am 00:56 Clear 71 21.7 69 20.6 94 94 N N/A 30.05 1018 10 16.0934 N/A
2:56 am 02:56 Clear with Mist and Fog 69 20.6 69 20.6 100 100 SSE 3 6 30.01 1016 5 8.0467 N/A
3:56 am 03:56 Mostly Cloudy with Mist and Fog 69 20.6 69 20.6 100 100 N N/A 30.02 1017 4 6.43736 N/A
4:36 am 04:36 Partly Cloudy with Mist and Fog 68 20 68 20 100 100 N N/A 30 1016 1 1.60934 N/A
4:38 am 04:38 Partly Cloudy with Fog 68 20 68 20 100 100 N N/A 30 1016 0.5 0.80467 N/A
4:46 am 04:46 Mostly Clear with Mist and Fog 70 21 68 20 94 94 N N/A 30 1016 1 1.60934 N/A
4:48 am 04:48 Mostly Clear with Mist and Fog 70 21 68 20 94 94 N N/A 30 1016 3 4.82802 N/A
4:56 am 04:56 Clear with Mist and Fog 68 20 68 20 100 100 N N/A 30.01 1016 2.5 4.02335 N/A
5:06 am 05:06 Clear with Mist and Fog 68 20 66 19 94 94 N N/A 30 1016 5 8.0467 N/A
5:10 am 05:10 Clear with Mist and Fog 66 19 66 19 100 100 N N/A 30 1016 1.5 2.41401 N/A
5:12 am 05:12 Clear with Mist and Fog 66 19 66 19 100 100 N N/A 30 1016 0.75 1.207005 N/A
5:20 am 05:20 Mostly Clear with Fog 68 20 66 19 94 94 N N/A 30 1016 0.5 0.80467 N/A
5:49 am 05:49 Mostly Clear with Mist and Fog 66 19 66 19 100 100 N N/A 30 1016 2 3.21868 N/A
5:56 am 05:56 Clear with Mist and Fog 67 19.4 67 19.4 100 100 N N/A 30.01 1016 4 6.43736 N/A
6:06 am 06:06 Mostly Clear with Mist and Fog 66 19 66 19 100 100 W 3 6 30 1016 1.75 2.816345 N/A
6:18 am 06:18 Mostly Cloudy with Mist and Fog 68 20 68 20 100 100 N N/A 30 1016 4 6.43736 N/A
6:56 am 06:56 Mostly Cloudy with Mist and Fog 68 20 68 20 100 100 N N/A 30.02 1017 4 6.43736 N/A
7:08 am 07:08 Mostly Cloudy with Mist and Fog 70 21 68 20 94 94 NW 3 6 30.03 1017 2.5 4.02335 N/A
7:27 am 07:27 Cloudy with Mist and Fog 70 21 70 21 100 100 NNW 3 6 30.03 1017 3 4.82802 N/A
8:56 am 08:56 Cloudy 71 21.7 70 21.1 96 96 N N/A 30.03 1017 9 14.48406 N/A
9:56 am 09:56 Sunny 76 24.4 69 20.6 79 79 WNW 3 6 30.01 1016 10 16.0934 N/A
10:56 am 10:56 Sunny 78 25.6 70 21.1 76 76 WNW 6 9 30.01 1016 10 16.0934 N/A
11:56 am 11:56 Mostly Sunny 80 26.7 71 21.7 74 74 W 8 13 29.99 1016 10 16.0934 N/A
12:56 pm 12:56 Partly Cloudy 82 27.8 70 21.1 67 67 VRB 5 7 29.98 1015 10 16.0934 N/A
1:56 pm 13:56 Mostly Cloudy 82 27.8 71 21.7 69 69 WNW 7 11 29.96 1015 10 16.0934 N/A
2:56 pm 14:56 Sunny 81 27.2 71 21.7 72 72 NW 6 9 29.95 1014 10 16.0934 N/A
3:56 pm 15:56 Mostly Cloudy with Light Rain 77 25 72 22.2 85 85 SW 10 17 29.94 1014 10 16.0934 N/A
4:56 pm 16:56 Mostly Cloudy 75 23.9 73 22.8 94 94 SW 6 9 29.93 1014 10 16.0934 0.01 0.254
5:56 pm 17:56 Mostly Cloudy 77 25 72 22.2 85 85 SW 3 6 29.94 1014 10 16.0934 N/A
6:56 pm 18:56 Partly Cloudy 76 24.4 72 22.2 88 88 N N/A 29.94 1014 10 16.0934 N/A
7:56 pm 19:56 Partly Cloudy 73 22.8 71 21.7 94 94 N N/A 29.94 1014 10 16.0934 N/A
8:03 pm 20:03 Mostly Cloudy 73 23 72 22 94 94 N N/A 29.94 1014 10 16.0934 N/A
8:13 pm 20:13 Partly Cloudy 73 23 72 22 94 94 N N/A 29.94 1014 10 16.0934 N/A
8:56 pm 20:56 Clear 74 23.3 69 20.6 85 85 NNW 5 7 29.95 1014 9 14.48406 N/A
9:56 pm 21:56 Mostly Clear 72 22.2 68 20 87 87 NNW 5 7 29.97 1015 10 16.0934 N/A
10:41 pm 22:41 Mostly Cloudy 73 23 68 20 83 83 NNE 13 20 29.97 1015 10 16.0934 N/A
10:48 pm 22:48 Partly Cloudy 73 23 68 20 83 83 NNE 12 19 29.97 1015 10 16.0934 N/A
10:56 pm 22:56 Mostly Clear 73 22.8 68 20 84 84 NNE 10 17 29.97 1015 10 16.0934 N/A
11:56 pm 23:56 Clear 72 22.2 68 20 87 87 NNE 8 13 29.97 1015 10 16.0934 N/A

Powered by AerisWeather